TimeEDT,TemperatureF,Dew PointF,Humidity,Sea Level PressureIn,VisibilityMPH,Wind Direction,Wind SpeedMPH,Gust SpeedMPH,PrecipitationIn,Events,Conditions,WindDirDegrees,DateUTC
12:15 AM,50.0,32.0,50,30.01,10.0,NNW,15.0,20.7,N/A,,Overcast,340,2013-05-14 04:15:00
12:35 AM,50.0,33.8,54,30.01,10.0,NNW,16.1,21.9,N/A,,Overcast,340,2013-05-14 04:35:00
12:55 AM,50.0,33.8,54,30.01,10.0,NNW,16.1,21.9,N/A,,Overcast,340,2013-05-14 04:55:00
1:15 AM,48.2,33.8,58,30.00,10.0,NNW,16.1,-,N/A,,Overcast,340,2013-05-14 05:15:00
1:35 AM,48.2,33.8,58,30.01,10.0,NNW,15.0,-,N/A,,Overcast,340,2013-05-14 05:35:00
1:55 AM,48.2,33.8,58,30.01,10.0,NNW,13.8,-,N/A,,Overcast,340,2013-05-14 05:55:00
2:15 AM,48.2,33.8,58,30.01,10.0,NNW,13.8,-,N/A,,Overcast,340,2013-05-14 06:15:00
2:35 AM,48.2,33.8,58,30.01,10.0,NNW,15.0,-,N/A,,Overcast,340,2013-05-14 06:35:00
2:55 AM,48.2,35.6,62,30.01,10.0,North,13.8,-,N/A,,Overcast,350,2013-05-14 06:55:00
3:15 AM,48.2,35.6,62,30.01,10.0,North,13.8,17.3,N/A,,Overcast,350,2013-05-14 07:15:00
3:35 AM,48.2,35.6,62,30.00,10.0,North,11.5,-,N/A,,Overcast,10,2013-05-14 07:35:00
3:55 AM,48.2,35.6,62,30.00,10.0,North,15.0,19.6,N/A,,Overcast,360,2013-05-14 07:55:00
4:15 AM,48.2,35.6,62,29.99,10.0,North,13.8,17.3,N/A,,Overcast,10,2013-05-14 08:15:00
4:35 AM,48.2,35.6,62,29.99,10.0,North,10.4,-,N/A,,Overcast,360,2013-05-14 08:35:00
4:55 AM,48.2,37.4,66,29.99,10.0,North,11.5,17.3,N/A,,Overcast,360,2013-05-14 08:55:00
5:15 AM,48.2,37.4,66,29.99,10.0,North,13.8,17.3,N/A,,Overcast,10,2013-05-14 09:15:00
5:35 AM,48.2,37.4,66,29.99,10.0,North,15.0,-,N/A,,Overcast,10,2013-05-14 09:35:00
5:55 AM,48.2,37.4,66,30.00,10.0,North,12.7,21.9,N/A,,Overcast,360,2013-05-14 09:55:00
6:15 AM,48.2,37.4,66,30.00,10.0,North,16.1,21.9,N/A,,Overcast,350,2013-05-14 10:15:00
6:35 AM,48.2,37.4,66,30.01,10.0,North,17.3,23.0,N/A,,Overcast,360,2013-05-14 10:35:00
6:55 AM,48.2,37.4,66,30.02,10.0,North,16.1,21.9,N/A,,Overcast,360,2013-05-14 10:55:00
7:15 AM,48.2,37.4,66,30.02,10.0,North,16.1,23.0,N/A,,Overcast,350,2013-05-14 11:15:00
7:35 AM,48.2,37.4,66,30.04,10.0,North,18.4,26.5,N/A,,Overcast,350,2013-05-14 11:35:00
7:55 AM,48.2,35.6,62,30.04,10.0,North,17.3,24.2,N/A,,Overcast,360,2013-05-14 11:55:00
8:15 AM,48.2,33.8,58,30.04,10.0,North,18.4,21.9,N/A,,Overcast,10,2013-05-14 12:15:00
8:35 AM,48.2,33.8,58,30.04,10.0,North,16.1,23.0,N/A,,Overcast,10,2013-05-14 12:35:00
8:55 AM,48.2,35.6,62,30.04,10.0,North,17.3,21.9,N/A,,Overcast,360,2013-05-14 12:55:00
9:15 AM,50.0,35.6,58,30.04,10.0,North,16.1,21.9,N/A,,Overcast,10,2013-05-14 13:15:00
9:35 AM,51.8,33.8,50,30.03,10.0,NNE,15.0,24.2,N/A,,Overcast,20,2013-05-14 13:35:00
9:55 AM,51.8,33.8,50,30.03,10.0,NNE,16.1,23.0,N/A,,Scattered Clouds,20,2013-05-14 13:55:00
10:15 AM,51.8,33.8,50,30.04,10.0,NNE,15.0,21.9,N/A,,Clear,20,2013-05-14 14:15:00
10:35 AM,51.8,33.8,50,30.04,10.0,NNE,16.1,20.7,N/A,,Clear,20,2013-05-14 14:35:00
10:55 AM,51.8,33.8,50,30.04,10.0,NNE,13.8,-,N/A,,Clear,20,2013-05-14 14:55:00
11:15 AM,51.8,35.6,54,30.04,10.0,NNE,12.7,-,N/A,,Clear,20,2013-05-14 15:15:00
11:35 AM,51.8,35.6,54,30.04,10.0,NNE,9.2,-,N/A,,Clear,30,2013-05-14 15:35:00
11:55 AM,51.8,33.8,50,30.05,10.0,North,10.4,-,N/A,,Clear,350,2013-05-14 15:55:00
12:15 PM,51.8,33.8,50,30.05,10.0,North,8.1,-,N/A,,Clear,360,2013-05-14 16:15:00
12:35 PM,51.8,33.8,50,30.04,10.0,North,6.9,-,N/A,,Clear,10,2013-05-14 16:35:00
12:55 PM,51.8,35.6,54,30.04,10.0,North,5.8,-,N/A,,Clear,360,2013-05-14 16:55:00
1:15 PM,51.8,35.6,54,30.03,10.0,NNE,5.8,-,N/A,,Clear,30,2013-05-14 17:15:00
1:35 PM,51.8,32.0,47,30.03,10.0,NNE,5.8,-,N/A,,Clear,20,2013-05-14 17:35:00
1:55 PM,53.6,30.2,41,30.03,10.0,NNE,6.9,-,N/A,,Clear,30,2013-05-14 17:55:00
2:15 PM,53.6,30.2,41,30.03,10.0,NE,4.6,-,N/A,,Clear,40,2013-05-14 18:15:00
2:35 PM,53.6,30.2,41,30.03,10.0,NNW,4.6,-,N/A,,Clear,330,2013-05-14 18:35:00
2:55 PM,53.6,30.2,41,30.03,10.0,North,3.5,-,N/A,,Clear,10,2013-05-14 18:55:00
3:15 PM,53.6,30.2,41,30.02,10.0,SW,6.9,-,N/A,,Clear,230,2013-05-14 19:15:00
3:35 PM,55.4,30.2,38,30.01,10.0,WSW,8.1,-,N/A,,Clear,250,2013-05-14 19:35:00
3:55 PM,55.4,30.2,38,30.01,10.0,SW,9.2,-,N/A,,Partly Cloudy,230,2013-05-14 19:55:00
4:15 PM,55.4,30.2,38,30.00,10.0,SSW,8.1,-,N/A,,Scattered Clouds,200,2013-05-14 20:15:00
4:35 PM,55.4,33.8,44,30.00,10.0,SSW,11.5,-,N/A,,Mostly Cloudy,210,2013-05-14 20:35:00
4:55 PM,55.4,33.8,44,30.00,10.0,SW,9.2,-,N/A,,Mostly Cloudy,220,2013-05-14 20:55:00
5:15 PM,53.6,35.6,51,30.00,10.0,SSW,12.7,-,N/A,,Mostly Cloudy,210,2013-05-14 21:15:00
5:35 PM,53.6,33.8,47,29.99,10.0,SSW,15.0,18.4,N/A,,Mostly Cloudy,210,2013-05-14 21:35:00
5:55 PM,53.6,37.4,54,29.99,10.0,SSW,12.7,-,N/A,,Mostly Cloudy,200,2013-05-14 21:55:00
6:15 PM,53.6,37.4,54,29.99,10.0,SSW,10.4,-,N/A,,Mostly Cloudy,210,2013-05-14 22:15:00
6:35 PM,53.6,37.4,54,29.98,10.0,SSW,10.4,-,N/A,,Overcast,210,2013-05-14 22:35:00
6:55 PM,53.6,37.4,54,29.99,10.0,SSW,9.2,-,N/A,,Mostly Cloudy,210,2013-05-14 22:55:00
7:15 PM,53.6,39.2,58,29.99,10.0,SW,10.4,-,N/A,,Overcast,220,2013-05-14 23:15:00
7:35 PM,51.8,37.4,58,30.00,10.0,WSW,9.2,-,N/A,,Overcast,240,2013-05-14 23:35:00
7:55 PM,51.8,35.6,54,30.00,10.0,WSW,8.1,-,N/A,,Mostly Cloudy,250,2013-05-14 23:55:00
8:15 PM,50.0,39.2,66,30.00,10.0,WSW,6.9,-,N/A,,Partly Cloudy,250,2013-05-15 00:15:00
8:35 PM,48.2,39.2,71,30.01,10.0,WSW,6.9,-,N/A,,Partly Cloudy,250,2013-05-15 00:35:00
8:55 PM,50.0,37.4,62,30.01,10.0,West,6.9,-,N/A,,Partly Cloudy,260,2013-05-15 00:55:00
9:15 PM,50.0,37.4,62,30.02,10.0,West,6.9,-,N/A,,Partly Cloudy,260,2013-05-15 01:15:00
9:35 PM,51.8,37.4,58,30.03,10.0,West,8.1,-,N/A,,Mostly Cloudy,280,2013-05-15 01:35:00
9:55 PM,51.8,37.4,58,30.04,10.0,West,8.1,-,N/A,,Overcast,270,2013-05-15 01:55:00
10:15 PM,51.8,39.2,62,30.04,10.0,West,8.1,-,N/A,,Overcast,280,2013-05-15 02:15:00
10:35 PM,51.8,37.4,58,30.04,10.0,West,8.1,-,N/A,,Overcast,280,2013-05-15 02:35:00
10:55 PM,51.8,37.4,58,30.04,10.0,West,10.4,16.1,N/A,,Mostly Cloudy,280,2013-05-15 02:55:00
11:15 PM,51.8,37.4,58,30.04,10.0,West,10.4,-,N/A,,Mostly Cloudy,280,2013-05-15 03:15:00
11:35 PM,51.8,37.4,58,30.04,10.0,West,10.4,-,N/A,,Partly Cloudy,280,2013-05-15 03:35:00
11:55 PM,51.8,35.6,54,30.04,10.0,West,11.5,-,N/A,,Clear,280,2013-05-15 03:55:00